Location: Newark
(59.4564°N, 26.6917°E)
Time: 13:28:24
(UTC+00:00)

SR - Pass Details

Date: 26 November 2019
Orbit: 573 x 882 km, 66.7° (Epoch: 12 December)

Event Time Altitude Azimuth Distance (km) Brightness Sun altitude
Rises 16:35:53 0° 295° (WNW) 3,436 ? -22.4°
Reaches altitude 10° 16:38:26 10° 302° (WNW) 2,523 ? -22.7°
Maximum altitude 16:44:08 47° 15° (NNE) 1,165 ? -23.5°
Enters shadow 16:45:06 43° 43° (NE) 1,227 ? -23.6°
Drops below altitude 10° 16:49:51 10° 89° (E) 2,537 - -24.2°
Sets 16:52:26 0° 95° (E) 3,457 - -24.5°
